Weather History for North Bend, OR

Change the Weather History Date:

Monday, March 10, 2014

  Actual Average Record
Temperature  
Mean Temperature 48 °F 48 °F  
Max Temperature 55 °F 54 °F 80 °F (1934)
Min Temperature 41 °F 41 °F 28 °F (1923)
Degree Days  
Heating Degree Days 17 17  
Month to date heating degree days 111 179  
Since 1 July heating degree days 2908 3353  
Cooling Degree Days 0 0  
Month to date cooling degree days 0 0  
Year to date cooling degree days 0 0  
Moisture  
Dew Point 47 °F    
Average Humidity 87    
Maximum Humidity 100    
Minimum Humidity 71    
Precipitation  
Precipitation 0.06 in 0.26 in 1.25 in (1989)
Month to date precipitation 1.79 2.69  
Year to date precipitation 12.51 20.47  
Sea Level Pressure  
Sea Level Pressure 30.32 in    
Wind  
Wind Speed 10 mph (NW)    
Max Wind Speed 16 mph    
Max Gust Speed 20 mph    
Visibility 10 miles    
Events      
T = Trace of Precipitation, MM = Missing Value Source: NWS Daily Summary

Daily Weather History Graph

Daily Weather History Graph

Search for Another Location

Airport:

Trip Planner

Search our weather history database for the weather conditions in past years. The results will help you decide how hot, cold, wet, or windy it might be!

Date:

Astronomy

Mar. 10, 2014 Rise Set
Actual Time 7:37 AM PDT 7:17 PM PDT
Civil Twilight 7:09 AM PDT 7:45 PM PDT
Nautical Twilight 6:36 AM PDT 8:18 PM PDT
Astronomical Twilight 6:02 AM PDT 8:52 PM PDT
Moon 1:59 PM PDT (3/10) 4:00 AM PDT (3/10)
Length of Visible Light 12h 36m
Length of Day
11h 39m
Waxing Gibbous, 71% of the Moon is Illuminated
Mar 10
Waxing Gibbous
Mar 16
Full
Mar 23
Last Quarter
Mar 30
New
Apr 7
First Quarter

Hourly Weather History & Observations

Time (PDT) Temp. Windchill Dew Point Humidity Pressure Visibility Wind Dir Wind Speed Gust Speed Precip Events Conditions
12:15 AM 51.8 °F - 51.8 °F 100% 30.09 in 10.0 mi West 12.7 mph - N/A   Overcast
12:35 AM 51.8 °F - 51.8 °F 100% 30.11 in 3.0 mi West 10.4 mph - N/A   Overcast
12:55 AM 51.8 °F - 51.8 °F 100% 30.11 in 3.0 mi West 10.4 mph 17.3 mph N/A   Overcast
1:15 AM 51.8 °F - 50.0 °F 94% 30.11 in 3.0 mi West 8.1 mph - N/A   Overcast
1:35 AM 51.8 °F - 50.0 °F 94% 30.11 in 7.0 mi West 9.2 mph - N/A   Overcast
1:55 AM 51.8 °F - 51.8 °F 100% 30.12 in 8.0 mi West 9.2 mph - N/A   Overcast
2:15 AM 51.8 °F - 50.0 °F 94% 30.12 in 6.0 mi West 8.1 mph - N/A   Overcast
2:35 AM 51.8 °F - 50.0 °F 94% 30.12 in 10.0 mi WNW 8.1 mph - N/A   Overcast
2:55 AM 51.8 °F - 51.8 °F 100% 30.13 in 10.0 mi West 10.4 mph - 0.01 in   Mostly Cloudy
3:15 AM 51.8 °F - 51.8 °F 100% 30.12 in 10.0 mi WNW 13.8 mph - N/A   Overcast
3:35 AM 51.8 °F - 50.0 °F 94% 30.13 in 5.0 mi WNW 13.8 mph - 0.04 in   Overcast
3:55 AM 51.8 °F - 50.0 °F 94% 30.13 in 10.0 mi NW 16.1 mph - 0.05 in   Overcast
4:15 AM 51.8 °F - 48.2 °F 88% 30.14 in 10.0 mi NW 15.0 mph 20.7 mph N/A   Overcast
4:35 AM 50.0 °F - 48.2 °F 94% 30.15 in 10.0 mi NW 16.1 mph - N/A   Mostly Cloudy
4:55 AM 50.0 °F - 48.2 °F 94% 30.15 in 10.0 mi NW 13.8 mph - N/A   Overcast
5:15 AM 50.0 °F - 48.2 °F 94% 30.17 in 10.0 mi NW 10.4 mph - N/A   Mostly Cloudy
5:35 AM 50.0 °F - 48.2 °F 94% 30.17 in 10.0 mi NW 15.0 mph 19.6 mph N/A   Overcast
5:55 AM 50.0 °F - 48.2 °F 94% 30.18 in 10.0 mi NW 15.0 mph 19.6 mph N/A   Overcast
6:15 AM 50.0 °F - 46.4 °F 87% 30.19 in 10.0 mi NW 16.1 mph - N/A   Overcast
6:35 AM 50.0 °F - 46.4 °F 87% 30.20 in 10.0 mi NW 13.8 mph - N/A   Overcast
6:55 AM 50.0 °F - 46.4 °F 87% 30.20 in 10.0 mi WNW 13.8 mph 18.4 mph N/A   Mostly Cloudy
7:15 AM 50.0 °F - 46.4 °F 87% 30.22 in 10.0 mi NW 11.5 mph 17.3 mph N/A   Mostly Cloudy
7:35 AM 50.0 °F - 46.4 °F 87% 30.23 in 10.0 mi NW 10.4 mph - N/A   Overcast
7:55 AM 48.2 °F - 46.4 °F 93% 30.24 in 10.0 mi NNW 11.5 mph - N/A   Mostly Cloudy
8:15 AM 48.2 °F - 46.4 °F 93% 30.25 in 10.0 mi NW 9.2 mph - N/A   Scattered Clouds
8:35 AM 50.0 °F - 46.4 °F 87% 30.26 in 10.0 mi NW 9.2 mph - N/A   Mostly Cloudy
8:55 AM 50.0 °F - 44.6 °F 82% 30.27 in 10.0 mi NW 8.1 mph - N/A   Mostly Cloudy
9:15 AM 50.0 °F - 46.4 °F 87% 30.28 in 10.0 mi NW 8.1 mph - N/A   Mostly Cloudy
9:35 AM 51.8 °F - 46.4 °F 82% 30.29 in 10.0 mi WNW 12.7 mph - N/A   Overcast
9:55 AM 51.8 °F - 46.4 °F 82% 30.30 in 10.0 mi WNW 10.4 mph - N/A   Overcast
10:15 AM 51.8 °F - 46.4 °F 82% 30.31 in 10.0 mi WNW 12.7 mph - N/A   Scattered Clouds
10:35 AM 51.8 °F - 46.4 °F 82% 30.32 in 10.0 mi West 17.3 mph - N/A   Scattered Clouds
10:55 AM 53.6 °F - 46.4 °F 77% 30.34 in 10.0 mi WNW 15.0 mph - N/A   Partly Cloudy
11:15 AM 53.6 °F - 46.4 °F 77% 30.35 in 10.0 mi WNW 15.0 mph - N/A   Partly Cloudy
11:35 AM 53.6 °F - 46.4 °F 77% 30.36 in 10.0 mi WNW 13.8 mph - N/A   Partly Cloudy
11:55 AM 53.6 °F - 46.4 °F 77% 30.37 in 10.0 mi WNW 13.8 mph 18.4 mph N/A   Mostly Cloudy
12:15 PM 53.6 °F - 46.4 °F 77% 30.37 in 10.0 mi WNW 12.7 mph - N/A   Scattered Clouds
12:35 PM 53.6 °F - 46.4 °F 77% 30.38 in 10.0 mi WNW 11.5 mph - N/A   Scattered Clouds
12:55 PM 53.6 °F - 46.4 °F 77% 30.38 in 10.0 mi WNW 10.4 mph - N/A   Partly Cloudy
1:15 PM 53.6 °F - 46.4 °F 77% 30.38 in 10.0 mi WNW 9.2 mph - N/A   Scattered Clouds
1:35 PM 53.6 °F - 46.4 °F 77% 30.39 in 10.0 mi WNW 12.7 mph 16.1 mph N/A   Scattered Clouds
1:55 PM 53.6 °F - 46.4 °F 77% 30.39 in 10.0 mi WNW 10.4 mph - N/A   Mostly Cloudy
2:15 PM 53.6 °F - 46.4 °F 77% 30.39 in 10.0 mi WNW 9.2 mph - N/A   Mostly Cloudy
2:35 PM 53.6 °F - 48.2 °F 82% 30.39 in 10.0 mi WNW 11.5 mph - N/A   Overcast
2:55 PM 55.4 °F - 48.2 °F 77% 30.39 in 10.0 mi WNW 12.7 mph - N/A   Mostly Cloudy
3:15 PM 53.6 °F - 46.4 °F 77% 30.39 in 10.0 mi NW 10.4 mph 16.1 mph N/A   Scattered Clouds
3:35 PM 53.6 °F - 46.4 °F 77% 30.40 in 10.0 mi NW 10.4 mph - N/A   Partly Cloudy
3:55 PM 53.6 °F - 46.4 °F 77% 30.41 in 10.0 mi WNW 9.2 mph - N/A   Partly Cloudy
4:15 PM 53.6 °F - 44.6 °F 72% 30.41 in 10.0 mi WNW 10.4 mph - N/A   Partly Cloudy
4:35 PM 53.6 °F - 44.6 °F 72% 30.42 in 10.0 mi NW 11.5 mph - N/A   Partly Cloudy
4:55 PM 53.6 °F - 44.6 °F 72% 30.43 in 10.0 mi NNW 10.4 mph - N/A   Partly Cloudy
5:15 PM 53.6 °F - 44.6 °F 72% 30.43 in 10.0 mi NW 10.4 mph - N/A   Partly Cloudy
5:35 PM 51.8 °F - 44.6 °F 76% 30.44 in 10.0 mi NNW 9.2 mph - N/A   Mostly Cloudy
5:55 PM 51.8 °F - 44.6 °F 76% 30.44 in 10.0 mi NNW 8.1 mph - N/A   Partly Cloudy
6:15 PM 51.8 °F - 44.6 °F 76% 30.44 in 10.0 mi NW 8.1 mph - N/A   Clear
6:35 PM 51.8 °F - 44.6 °F 76% 30.44 in 10.0 mi NNW 6.9 mph - N/A   Partly Cloudy
6:55 PM 50.0 °F - 44.6 °F 82% 30.44 in 10.0 mi NNW 5.8 mph - N/A   Clear
7:15 PM 50.0 °F - 44.6 °F 82% 30.45 in 10.0 mi NNW 5.8 mph - N/A   Partly Cloudy
7:35 PM 48.2 °F - 44.6 °F 87% 30.46 in 10.0 mi North 4.6 mph - N/A   Partly Cloudy
7:55 PM 48.2 °F - 44.6 °F 87% 30.46 in 10.0 mi North 3.5 mph - N/A   Clear
8:15 PM 48.2 °F - 44.6 °F 87% 30.47 in 10.0 mi Calm Calm - N/A   Clear
8:35 PM 48.2 °F - 46.4 °F 93% 30.47 in 10.0 mi Calm Calm - N/A   Clear
8:55 PM 46.4 °F 45.2 °F 46.4 °F 100% 30.47 in 10.0 mi NNE 3.5 mph - N/A   Clear
9:15 PM 46.4 °F 44.3 °F 44.6 °F 93% 30.48 in 10.0 mi NNE 4.6 mph - N/A   Clear
9:35 PM 44.6 °F - 44.6 °F 100% 30.49 in 10.0 mi Calm Calm - N/A   Clear
9:55 PM 44.6 °F 43.1 °F 42.8 °F 93% 30.49 in 10.0 mi SSE 3.5 mph - N/A   Clear
10:15 PM 44.6 °F 42.2 °F 44.6 °F 100% 30.50 in 10.0 mi SE 4.6 mph - N/A   Clear
10:35 PM 42.8 °F 40.1 °F 42.8 °F 100% 30.51 in 10.0 mi SE 4.6 mph - N/A   Clear
10:55 PM 42.8 °F 40.1 °F 42.8 °F 100% 30.51 in 10.0 mi SE 4.6 mph - N/A   Clear
11:15 PM 42.8 °F 40.1 °F 42.8 °F 100% 30.52 in 10.0 mi SE 4.6 mph - N/A   Clear
11:35 PM 42.8 °F 38.6 °F 41.0 °F 93% 30.52 in 10.0 mi SE 6.9 mph - N/A   Clear
11:55 PM 42.8 °F 39.3 °F 42.8 °F 100% 30.52 in 10.0 mi SE 5.8 mph - N/A   Clear